Miscellaneous Local Product
Issued by NWS North Platte, NE

Home | Current Version | Previous Version | Graphics & Text | Print | Product List | Glossary On
Versions: 1 2 3 4 5 6 7 8 9 10 11 12 13 14 15 16 17 18 19 20 21 22 23 24 25 26 27 28 29 30 31 32 33 34 35 36 37 38 39 40 41 42 43 44 45 46 47 48 49 50
000
AXUS43 KLBF 280410
MISLBF


WESTERN AND NORTH CENTRAL NEBRASKA HOURLY WEATHER ROUNDUP
NATIONAL WEATHER SERVICE NORTH PLATTE NE
1000 PM CST SAT DEC 27 2014

***STATIONS NOT REPORTING VARIABLES SUCH AS SKY/WEATHER OR
PRESSURE ARE PROVIDED BY THE NEBRASKA DEPARTMENT OF
ROADS...RAWS...AND APRS NETWORKS...AND ARE NOT UNDER
NATIONAL WEATHER SERVICE QUALITY CONTROL***

...OBSERVATIONS IN AND NEAR THE EASTERN PANHANDLE OF NEBRASKA...

CITY           SKY/WX    TMP DP  RH WIND       PRES   REMARKS
PINE RIDGE     CLEAR      8   2  76 W6        30.06S WCI  -2
CHADRON        CLEAR      7   1  76 SW9       30.09S WCI  -7
ALLIANCE       PTCLDY     1  -4  79 W10       30.07S WCI -15
SIDNEY         PTCLDY     4  -2  76 NW12      30.09F WCI -12
WHITECLAY        N/A     21   8  59 W6          N/A  WCI  13
CRESCENT LAKE    N/A     13   5  70 W7          N/A  WCI   3
LISCO            N/A      6  -1  72 CALM        N/A
BIG SPRINGS      N/A      7   3  84 SW5         N/A  WCI  -2
$$

...OBSERVATIONS IN NORTH CENTRAL NEBRASKA...

CITY           SKY/WX    TMP DP  RH WIND       PRES   REMARKS
VALENTINE      CLEAR     11   5  77 W9        30.09S WCI  -2
THEDFORD       CLEAR     14   8  78 W5        30.10F WCI   6
AINSWORTH      CLEAR     13   7  76 W8        30.09R WCI   2
O`NEILL        PTCLDY    10   8  93 SW6       30.10F WCI   0
ORD            CLEAR      7   4  87 NW3       30.14S
BROKEN BOW     CLEAR     17   9  70 W10       30.13F WCI   5
BROWNLEE         N/A     10   2  69 SW7         N/A  WCI  -1
SPRINGVIEW       N/A      6   4  89 CALM        N/A
BREWSTER         N/A     17  13  86 W8          N/A  WCI   6
ROSE             N/A     20  19  98 S9          N/A  WCI   9
SARGENT          N/A      3   1  91 CALM        N/A
COMSTOCK         N/A     22  17  79 W13         N/A  WCI  10
CHAMBERS         N/A     14   9  79 SW5         N/A  WCI   6
EWING            N/A     10   8  90 CALM        N/A
$$

...OBSERVATIONS IN SOUTHWEST NEBRASKA AND FAR NORTHEAST COLORADO...

CITY           SKY/WX    TMP DP  RH WIND       PRES   REMARKS
WRAY           FAIR      13   8  80 W7        30.14S WCI   2
HOLYOKE        FAIR       5   0  78 W9        30.13F WCI  -9
IMPERIAL       PTCLDY    10   4  76 W9        30.15S WCI  -3
OGALLALA       PTCLDY    -1  -3  88 W8        30.14S WCI -15
NORTH PLATTE   PTCLDY     2   0  91 NW6       30.15F WCI  -9
MCCOOK         PTCLDY    10   7  87 SW9       30.19S WCI  -3
LEXINGTON      CLEAR      7   4  87 W6        30.18S WCI  -3
PAXTON           N/A      9   5  82 CALM        N/A
BRADY            N/A      5   2  86 CALM        N/A
GOTHENBURG       N/A     14  10  85 CALM        N/A
CALLAWAY         N/A     16  12  82 W12         N/A  WCI   3
$$

...NORTH PLATTE AREA...

CITY           SKY/WX    TMP DP  RH WIND       PRES   REMARKS
AIRPORT        PTCLDY     2   0  91 NW6       30.15F WCI  -9
DOWNTOWN         N/A     13   7  76 CALM        N/A
$$

...SOME WEATHER OBSERVATIONS FROM AROUND THE REGION...

CITY           SKY/WX    TMP DP  RH WIND       PRES   REMARKS
DENVER         PTCLDY    13   8  81 SW7       30.04F WCI   3
LARAMIE        PTCLDY     9  -2  61 SW17      29.99S WCI  -9
CHEYENNE       MOCLDY    17   0  47 W16       30.00F WCI   2
SCOTTSBLUFF    PTCLDY     5   2  87 N6        30.09S WCI  -6
RAPID CITY     CLEAR     11   6  81 W5        30.02F WCI   3
PIERRE         CLEAR     16  11  80 SW10      30.06S WCI   4
WINNER         FAIR      19  10  68 SW10      30.08F WCI   7
SIOUX FALLS    PTCLDY    10   8  92 S6        30.12F WCI   0
OMAHA          CLEAR     18  15  88 SE6       30.25S WCI  10
GRAND ISLAND     N/A     17  12  80 SW8       30.19S WCI   7
KANSAS CITY    CLEAR     24  19  81 W3        30.26S
WICHITA        CLEAR     22  15  75 NW3       30.29S
HAYS           CLEAR     18   7  62 W5        30.24F WCI  11
LIBERAL        CLEAR     19  10  68 SW5       30.25F WCI  13
GOODLAND       PTCLDY    14   6  70 SW8       30.15F WCI   3
$$



USA.gov is the U.S. government's official web portal to all federal, state and local government web resources and services.